[[{"header":{"parameterUnit":"m.s-1","parameterCategory":2,"la1":30.2991,"la2":30.254,"lo1":-89.0895,"lo2":-89.0444,"dy":0.0017,"dx":0.0017,"nx":28,"ny":28,"refTime":"2025-06-20T09:00:00:Z","depth":"0","parameterNumber":2,"parameterNumberName":"U-component_of_CURRENTS"},"data":[0,0,0,0,0,0,0,0,0,0,0,0,0,0,0,0,0,0,0,0,0,0,0,0,0,0,0,0,0,0,0,0,0,0,0,0,0,0,0,0,0,0,0,0,0,0,0,0,0,0,0,0,0,0,0,0,0,0,0.2866,0.2866,0,0.2906,0.2906,0.2906,0.29,0.29,0.2899,0.2899,0.3008,0.3011,0.3014,0,0,0,0,0,0,0,0,0,0,0,0,0,0.2796,0.2797,0.2866,0.2866,0.2867,0.2906,0.2906,0.2906,0.29,0.29,0.2899,0.2899,0.3007,0.301,0.3014,0,0,0,0,0,0,0,0,0,0,0,0,0,0.2826,0.2797,0.2865,0.2872,0.2873,0.2906,0.2906,0.2906,0.29,0.29,0.2899,0.2899,0.3005,0.301,0.3015,0.3054,0,0,0.3029,0.3032,0,0,0,0,0,0,0,0,0.2825,0.2829,0.287,0.2871,0.2873,0.2901,0.2921,0.296,0.29,0.2886,0.2899,0.2899,0.2981,0.2988,0.299,0.3059,0.3064,0.303,0.3033,0.3035,0.3036,0,0,0,0,0,0,0,0.2823,0.2827,0.2878,0.2871,0.2873,0.2877,0.288,0.2928,0.2934,0.2887,0.2888,0.2898,0.2982,0.2985,0.2993,0.3066,0.303,0.3034,0.3037,0.3039,0.3236,0.3238,0,0,0,0,0,0,0.2825,0.2825,0.2876,0.2879,0.2851,0.2879,0.2882,0.2889,0.2932,0.2939,0.2899,0.2898,0.2977,0.2987,0.2997,0.3085,0.3035,0.3039,0.3042,0.3234,0.3237,0.3239,0,0,0,0,0,0,0.2824,0.2829,0.2875,0.2856,0.2863,0.2881,0.2888,0.289,0.2896,0.2941,0.2948,0.2903,0.2977,0.299,0.3054,0.3088,0.3041,0.3046,0.3231,0.3235,0.3238,0.3237,0,0,0,0,0,0,0.2821,0.2828,0.2834,0.2856,0.2864,0.2897,0.2889,0.2892,0.2905,0.2905,0.2948,0.2957,0.2978,0.3047,0.3059,0.3094,0.305,0.3228,0.3233,0.3237,0.3234,0.324,0.3245,0,0,0,0,0,0.2819,0.2833,0.2834,0.284,0.2871,0.2898,0.2902,0.291,0.2906,0.2912,0.295,0.2955,0.3084,0.3052,0.3066,0.3103,0.3226,0.3231,0.3237,0.3232,0.3239,0.3245,0,0,0,0,0,0,0.2811,0.2835,0.2836,0.2858,0.2877,0.2898,0.2909,0.2914,0.2945,0.2948,0.2981,0.2994,0.307,0.3091,0.3055,0.3177,0.3158,0.3167,0.315,0.3158,0.3163,0.3149,0.3054,0,0,0,0,0,0.2811,0.2823,0.2848,0.2865,0.2874,0.289,0.2902,0.291,0.2941,0.2952,0.2985,0.3036,0.3103,0.313,0.3187,0.3245,0.3283,0.3282,0.3288,0.3292,0.3293,0.3387,0.3401,0.3257,0.3257,0.3257,0,0,0.2813,0.2829,0.2835,0.2863,0.2876,0.2896,0.2895,0.2917,0.2937,0.2964,0.3006,0.306,0.3127,0.3198,0.3233,0.3216,0.3356,0.3299,0.3301,0.33,0.3394,0.3408,0.342,0.326,0.326,0.3259,0,0,0.2824,0.2835,0.2847,0.2864,0.289,0.2903,0.291,0.2937,0.2951,0.3,0.3041,0.3111,0.3186,0.3246,0.3286,0.336,0.3389,0.3382,0.3389,0.3481,0.3493,0.3504,0.3571,0.3588,0.3375,0.3375,0.3375,0,0.2825,0.284,0.2856,0.2875,0.2886,0.2906,0.292,0.2948,0.2993,0.3016,0.3015,0.3161,0.3212,0.3319,0.3345,0.3371,0.3419,0.335,0.3486,0.3497,0.3509,0.3575,0.3593,0.3376,0.3376,0.3376,0.3376,0,0.2845,0.2856,0.2867,0.2891,0.2907,0.2925,0.2959,0.2985,0.3004,0.3035,0.3131,0.3208,0.3289,0.3329,0.3358,0.3473,0.348,0.3486,0.3458,0.3523,0.3589,0.3608,0.3377,0.3377,0.3377,0.3376,0,0,0.2849,0.2873,0.2875,0.2872,0.2913,0.2921,0.2969,0.3012,0.3039,0.3103,0.3156,0.3283,0.3318,0.3369,0.3427,0.3505,0.3627,0.3523,0.3528,0.3571,0.3821,0.3774,0.379,0.3655,0.3659,0.3662,0.3834,0,0.2855,0.2866,0.2889,0.2899,0.29,0.2935,0.297,0.3017,0.3062,0.3121,0.322,0.3296,0.3337,0.3378,0.3471,0.3594,0.3679,0.3579,0.3769,0.3774,0.3709,0.3812,0.3697,0.3837,0.3853,0.3857,0.3859,0,0.2864,0.2864,0.2865,0.2874,0.288,0.2897,0.2938,0.2975,0.3074,0.3116,0.3215,0.3285,0.3429,0.3439,0.3679,0.3614,0.372,0.3805,0.3814,0.3781,0.3763,0.378,0.3872,0.3688,0.3889,0.3886,0.3884,0,0.2827,0.2845,0.2832,0.2839,0.2865,0.2875,0.2894,0.2969,0.3002,0.3112,0.3155,0.3322,0.3404,0.3574,0.3747,0.3725,0.3995,0.3985,0.4045,0.4042,0.3987,0.3973,0.3907,0.4156,0.4156,0.4155,0.4155,0,0.2816,0.2806,0.2807,0.28,0.2785,0.2825,0.2838,0.2886,0.2973,0.3021,0.3144,0.3222,0.3443,0.3611,0.3767,0.3969,0.402,0.4071,0.4097,0.3983,0.3967,0.3837,0.3731,0.4162,0.416,0.4159,0.4158,0,0.2777,0.2784,0.276,0.2766,0.2762,0.2747,0.2778,0.2795,0.2889,0.296,0.2995,0.3177,0.3392,0.3609,0.3886,0.398,0.4053,0.4234,0.4069,0.4072,0.3921,0.382,0.3712,0.3625,0.4329,0.4329,0.4329,0,0.2755,0.2735,0.2709,0.2681,0.2679,0.2667,0.266,0.2737,0.2769,0.293,0.2964,0.3175,0.3326,0.3701,0.3928,0.4199,0.4049,0.42,0.4137,0.391,0.3819,0.3647,0.3569,0.4075,0.4073,0.4071,0.407,0,0.2696,0.2685,0.2658,0.2596,0.2567,0.2543,0.2551,0.2574,0.268,0.2766,0.2896,0.3029,0.3382,0.3585,0.391,0.408,0.3935,0.4171,0.3998,0.3664,0.3416,0.3344,0.394,0.4055,0.4056,0.4057,0.4058,0.4059,0.2636,0.2593,0.2544,0.2483,0.2444,0.2407,0.2383,0.2444,0.2496,0.2621,0.2785,0.2965,0.3234,0.3683,0.3815,0.3875,0.3861,0.3804,0.3723,0.3587,0.3413,0.3955,0.405,0.4051,0.4052,0.4053,0.4054,0,0.2523,0.2482,0.2429,0.2339,0.2263,0.2287,0.2288,0.2283,0.233,0.2506,0.2639,0.2894,0.3095,0.3325,0.3483,0.3405,0.3346,0.3319,0.3041,0.3012,0.3568,0.3462,0.3356,0.3356,0.3356,0.3356,0.3357,0.3357,0.2455,0.236,0.233,0.2169,0.2117,0.202,0.2013,0.2053,0.2158,0.2301,0.2445,0.2618,0.2796,0.2874,0.2856,0.2883,0.2643,0.2571,0.2536,0.2886,0.2923,0.2958,0.2834,0.2597,0.2596,0.1916,0.191,0.1906]},{"header":{"parameterUnit":"m.s-1","parameterCategory":2,"la1":30.2991,"la2":30.254,"lo1":-89.0895,"lo2":-89.0444,"dy":0.0017,"dx":0.0017,"nx":28,"ny":28,"refTime":"2025-06-20T09:00:00:Z","depth":"0","parameterNumber":3,"parameterNumberName":"V-component_of_CURRENTS"},"data":[0,0,0,0,0,0,0,0,0,0,0,0,0,0,0,0,0,0,0,0,0,0,0,0,0,0,0,0,0,0,0,0,0,0,0,0,0,0,0,0,0,0,0,0,0,0,0,0,0,0,0,0,0,0,0,0,0,0,0.0818,0.0819,0,0.0885,0.0886,0.0887,0.0882,0.0881,0.088,0.0879,0.0872,0.0873,0.0873,0,0,0,0,0,0,0,0,0,0,0,0,0,0.0698,0.07,0.0818,0.0819,0.082,0.0885,0.0886,0.0887,0.0882,0.0881,0.088,0.0879,0.0872,0.0872,0.0873,0,0,0,0,0,0,0,0,0,0,0,0,0,0.0756,0.0701,0.0818,0.0826,0.0827,0.0885,0.0886,0.0887,0.0882,0.0881,0.088,0.0878,0.0871,0.0872,0.0873,0.0909,0,0,0.0877,0.0877,0,0,0,0,0,0,0,0,0.0752,0.076,0.0824,0.0825,0.0827,0.0874,0.0841,0.0891,0.0883,0.0861,0.0879,0.0878,0.0867,0.0868,0.0885,0.0908,0.0908,0.0877,0.0877,0.0878,0.0878,0,0,0,0,0,0,0,0.0748,0.0757,0.0844,0.0825,0.0827,0.083,0.0836,0.0851,0.087,0.0863,0.0863,0.0871,0.0867,0.0884,0.0884,0.0908,0.0877,0.0878,0.0878,0.0879,0.0943,0.0944,0,0,0,0,0,0,0.0742,0.0754,0.0842,0.0846,0.0786,0.0833,0.0841,0.086,0.0871,0.0872,0.0873,0.0871,0.0883,0.0883,0.0884,0.0946,0.0878,0.0879,0.0879,0.0942,0.0944,0.0945,0,0,0,0,0,0,0.074,0.075,0.0839,0.0801,0.0812,0.0837,0.0859,0.0862,0.088,0.0879,0.0878,0.0887,0.0882,0.0882,0.0915,0.0944,0.0879,0.088,0.0941,0.0943,0.0944,0.1056,0,0,0,0,0,0,0.0736,0.0749,0.0764,0.0801,0.0814,0.0888,0.0861,0.0865,0.0888,0.0887,0.0892,0.089,0.0881,0.0914,0.0916,0.0944,0.0881,0.094,0.0942,0.0944,0.1051,0.1062,0.1071,0,0,0,0,0,0.0732,0.0764,0.0765,0.0775,0.0834,0.0889,0.0898,0.0908,0.089,0.0915,0.0919,0.0889,0.0927,0.0917,0.0919,0.0948,0.0939,0.0941,0.0943,0.1047,0.106,0.107,0,0,0,0,0,0,0.072,0.0768,0.0769,0.0813,0.0852,0.0889,0.0915,0.0916,0.0941,0.0934,0.0921,0.0921,0.0958,0.0936,0.0925,0.0968,0.0921,0.0924,0.0999,0.1011,0.102,0.1016,0.0882,0,0,0,0,0,0.0725,0.076,0.0803,0.0838,0.086,0.0887,0.0909,0.0919,0.0944,0.0953,0.096,0.0958,0.0971,0.0978,0.0987,0.1022,0.0973,0.1033,0.1043,0.1051,0.1048,0.1006,0.1011,0.0953,0.0953,0.0953,0,0,0.0728,0.076,0.0779,0.0838,0.0867,0.0922,0.0897,0.0942,0.0983,0.0948,0.1005,0.1,0.0989,0.103,0.1042,0.1016,0.1044,0.1054,0.1062,0.1053,0.1009,0.1014,0.1019,0.0954,0.0954,0.0954,0,0,0.0765,0.0786,0.0832,0.0873,0.0924,0.0948,0.0963,0.101,0.1026,0.108,0.1061,0.1077,0.1102,0.1105,0.1105,0.117,0.11,0.1162,0.121,0.1171,0.1175,0.1178,0.1132,0.113,0.1164,0.1164,0.1164,0,0.0764,0.0833,0.0854,0.0914,0.0955,0.0964,0.1027,0.1055,0.1105,0.1125,0.1108,0.1143,0.1138,0.1176,0.1197,0.1194,0.1148,0.1174,0.1184,0.1186,0.1187,0.1139,0.1135,0.117,0.1169,0.1168,0.1168,0,0.084,0.0897,0.0932,0.101,0.1055,0.1113,0.1155,0.1193,0.1204,0.1225,0.1266,0.126,0.127,0.1275,0.126,0.1273,0.1232,0.1205,0.1157,0.12,0.1146,0.114,0.1178,0.1176,0.1174,0.1173,0,0,0.084,0.0961,0.0974,0.1029,0.1112,0.116,0.1229,0.1296,0.1333,0.1358,0.1398,0.142,0.1392,0.1388,0.1364,0.1334,0.1315,0.1276,0.1271,0.1234,0.1215,0.1172,0.1161,0.1284,0.1284,0.1283,0.1177,0,0.0896,0.1016,0.1065,0.1182,0.1251,0.1289,0.1354,0.1407,0.1434,0.1473,0.1453,0.1477,0.1441,0.1438,0.1409,0.1342,0.1303,0.1346,0.1174,0.1169,0.1129,0.1154,0.1179,0.1085,0.1171,0.117,0.1169,0,0.0962,0.1036,0.1154,0.1276,0.1309,0.1371,0.1464,0.1524,0.1568,0.1582,0.1588,0.1563,0.1545,0.149,0.1389,0.1413,0.132,0.1256,0.1249,0.1163,0.1116,0.1053,0.107,0.0933,0.1159,0.116,0.1161,0,0.0961,0.1103,0.1196,0.1241,0.1371,0.1422,0.1484,0.1552,0.1602,0.1636,0.165,0.1626,0.1598,0.1497,0.1378,0.1371,0.1243,0.1214,0.1087,0.1083,0.1046,0.1039,0.0912,0.1121,0.1121,0.1122,0.1122,0,0.1012,0.109,0.12,0.1256,0.1361,0.1439,0.1536,0.159,0.165,0.1704,0.1691,0.17,0.1591,0.1512,0.1393,0.1229,0.1249,0.1093,0.1054,0.1086,0.1084,0.0914,0.085,0.1118,0.1118,0.1119,0.112,0,0.1013,0.1086,0.1198,0.1327,0.1368,0.1439,0.1568,0.1632,0.1681,0.1739,0.1745,0.1739,0.1648,0.1532,0.1367,0.1242,0.1026,0.1027,0.1073,0.104,0.0787,0.073,0.0574,0.0539,0.0863,0.0862,0.086,0,0.103,0.1087,0.1227,0.1286,0.1349,0.1457,0.1535,0.1632,0.1695,0.176,0.1781,0.1729,0.1716,0.1482,0.1275,0.1068,0.0966,0.0913,0.0905,0.0772,0.0679,0.0665,0.0648,0.0901,0.09,0.0899,0.0899,0,0.106,0.11,0.1186,0.1292,0.1383,0.1495,0.1603,0.1659,0.1761,0.1811,0.185,0.1849,0.1663,0.1489,0.1219,0.1068,0.0847,0.0887,0.0742,0.069,0.0673,0.0623,0.0964,0.0892,0.0893,0.0893,0.0893,0.0894,0.1065,0.1114,0.1208,0.1309,0.141,0.1518,0.1593,0.1701,0.1802,0.1899,0.1902,0.1943,0.1701,0.1359,0.113,0.073,0.076,0.061,0.0548,0.0542,0.0521,0.084,0.0728,0.0727,0.0727,0.0727,0.0727,0,0.107,0.1129,0.1222,0.1339,0.1429,0.149,0.163,0.1701,0.1806,0.1943,0.2002,0.1944,0.1623,0.1282,0.0748,0.0453,0.0403,0.03,0.0291,0.0287,0.0556,0.0569,0.0427,0.0427,0.0427,0.0428,0.0428,0.0428,0.1076,0.1147,0.1195,0.1326,0.1404,0.1508,0.1581,0.1693,0.1812,0.1963,0.2042,0.2105,0.1804,0.0902,0.0285,0.0162,0.0004,-0.0035,-0.0123,0.0051,0.0076,0.0099,0.0095,-0.0143,-0.0144,-0.0317,-0.032,-0.0321]}],[{"header":{"parameterUnit":"m.s-1","parameterCategory":2,"la1":30.2991,"la2":30.254,"lo1":-89.0895,"lo2":-89.0444,"dy":0.0017,"dx":0.0017,"nx":28,"ny":28,"refTime":"2025-06-20T09:00:00:Z","depth":"2","parameterNumber":2,"parameterNumberName":"U-component_of_CURRENTS"},"data":[0,0,0,0,0,0,0,0,0,0,0,0,0,0,0,0,0,0,0,0,0,0,0,0,0,0,0,0,0,0,0,0,0,0,0,0,0,0,0,0,0,0,0,0,0,0,0,0,0,0,0,0,0,0,0,0,0,0,0.214,0.214,0,0.2138,0.2138,0.2138,0.2128,0.2128,0.2128,0.2128,0.214,0.214,0.214,0,0,0,0,0,0,0,0,0,0,0,0,0,0.2136,0.2136,0.214,0.214,0.214,0.2138,0.2138,0.2138,0.2128,0.2128,0.2128,0.2128,0.2139,0.214,0.214,0,0,0,0,0,0,0,0,0,0,0,0,0,0.2134,0.2136,0.214,0.2137,0.2137,0.2138,0.2138,0.2138,0.2128,0.2128,0.2128,0.2128,0.2139,0.214,0.214,0.2144,0,0,0.2142,0.2142,0,0,0,0,0,0,0,0,0.2134,0.2134,0.2137,0.2137,0.2137,0.2135,0.2141,0.2141,0.2128,0.2129,0.2128,0.2128,0.2141,0.2141,0.2138,0.2145,0.2145,0.2142,0.2142,0.2142,0.2143,0,0,0,0,0,0,0,0.2135,0.2134,0.2137,0.2137,0.2137,0.2136,0.2135,0.2141,0.2134,0.2129,0.2129,0.2132,0.214,0.2137,0.2138,0.2146,0.2142,0.2142,0.2143,0.2143,0.2226,0.2228,0,0,0,0,0,0,0.2139,0.2134,0.2137,0.2137,0.2138,0.2136,0.2136,0.2134,0.2134,0.2134,0.2132,0.2132,0.2136,0.2137,0.2138,0.2203,0.2142,0.2143,0.2143,0.2224,0.2227,0.2229,0,0,0,0,0,0,0.2139,0.2139,0.2137,0.2138,0.2138,0.2137,0.2135,0.2134,0.2147,0.2136,0.2136,0.2148,0.2136,0.2138,0.2168,0.2201,0.2143,0.2144,0.2222,0.2225,0.2228,0.2294,0,0,0,0,0,0,0.2139,0.2139,0.2147,0.2138,0.2138,0.2151,0.2135,0.2134,0.2149,0.2149,0.215,0.2149,0.2136,0.2167,0.2168,0.2201,0.2144,0.222,0.2224,0.2227,0.229,0.2299,0.2307,0,0,0,0,0,0.2138,0.2145,0.2147,0.2148,0.2146,0.2152,0.2152,0.2149,0.215,0.216,0.2169,0.215,0.2191,0.2169,0.217,0.2203,0.2218,0.2222,0.2227,0.2286,0.2297,0.2307,0,0,0,0,0,0,0.215,0.2145,0.2147,0.2153,0.216,0.2151,0.2162,0.2163,0.2176,0.2182,0.2171,0.2173,0.2214,0.2202,0.2179,0.224,0.2203,0.2208,0.2248,0.2258,0.2267,0.2274,0.2144,0,0,0,0,0,0.2157,0.216,0.216,0.2169,0.2173,0.2173,0.2179,0.218,0.2187,0.2192,0.2196,0.2208,0.223,0.2239,0.225,0.228,0.2296,0.2305,0.2313,0.2321,0.2329,0.2385,0.24,0.2243,0.2243,0.2243,0,0,0.2164,0.2163,0.2166,0.2172,0.2176,0.2192,0.2176,0.2192,0.2213,0.2193,0.2228,0.224,0.2246,0.2284,0.2301,0.2279,0.2379,0.2326,0.2332,0.2336,0.2391,0.2406,0.242,0.2246,0.2245,0.2245,0,0,0.2181,0.2182,0.2192,0.2201,0.2215,0.2216,0.2227,0.2234,0.2246,0.2277,0.228,0.2314,0.2331,0.235,0.236,0.2426,0.2426,0.2432,0.2477,0.2533,0.2546,0.2558,0.2616,0.2632,0.2432,0.2433,0.2433,0,0.2195,0.2203,0.2199,0.2216,0.2228,0.2233,0.2254,0.2268,0.2288,0.231,0.2298,0.2361,0.2365,0.2425,0.2449,0.2446,0.2479,0.2434,0.2544,0.2556,0.2567,0.2623,0.2641,0.2436,0.2436,0.2436,0.2435,0,0.2217,0.2231,0.224,0.2261,0.2276,0.2295,0.2313,0.2341,0.2356,0.2372,0.2434,0.2446,0.2484,0.2496,0.2491,0.2576,0.2577,0.2551,0.2515,0.2587,0.2642,0.2659,0.2442,0.244,0.2439,0.2438,0,0,0.2231,0.2251,0.2256,0.2271,0.2302,0.2312,0.2362,0.2403,0.2442,0.247,0.2522,0.2569,0.2582,0.2596,0.2604,0.2648,0.2758,0.2638,0.2639,0.2693,0.2897,0.2781,0.2788,0.2755,0.2758,0.276,0.2911,0,0.2254,0.2281,0.2291,0.233,0.2346,0.2372,0.2414,0.2456,0.2493,0.2545,0.258,0.2631,0.2619,0.2647,0.2696,0.274,0.2803,0.272,0.2822,0.2825,0.2711,0.2803,0.2433,0.2526,0.2927,0.293,0.2932,0,0.2274,0.2288,0.232,0.2359,0.2371,0.2398,0.2466,0.2508,0.2585,0.2617,0.2679,0.2704,0.2789,0.2756,0.2886,0.2837,0.2884,0.291,0.2916,0.2793,0.274,0.2516,0.2541,0.2959,0.2957,0.2955,0.2953,0,0.2272,0.231,0.2332,0.2345,0.2392,0.2421,0.2457,0.2532,0.2572,0.2672,0.2712,0.2804,0.2852,0.2928,0.2986,0.2955,0.3116,0.3073,0.3021,0.3014,0.2708,0.2668,0.318,0.3179,0.3179,0.3179,0.3178,0,0.2283,0.2305,0.2331,0.2342,0.2379,0.2422,0.2477,0.2534,0.2614,0.2672,0.2749,0.2811,0.2898,0.2986,0.3035,0.3082,0.3166,0.3053,0.3049,0.2722,0.2684,0.3054,0.3037,0.3184,0.3183,0.3182,0.3181,0,0.2277,0.2295,0.232,0.2362,0.2375,0.2405,0.2465,0.2506,0.2598,0.2679,0.2715,0.284,0.2965,0.3045,0.3174,0.3129,0.3193,0.3192,0.2805,0.2751,0.3047,0.3033,0.3153,0.315,0.3148,0.3146,0.3144,0,0.2274,0.2284,0.2316,0.232,0.2336,0.2376,0.2402,0.2488,0.2534,0.2692,0.2728,0.2876,0.2929,0.3064,0.2992,0.3037,0.3212,0.2775,0.2632,0.3063,0.3048,0.3037,0.3025,0.2273,0.2264,0.2257,0.2251,0,0.2262,0.2273,0.2287,0.2292,0.2308,0.2326,0.2374,0.2401,0.2518,0.2585,0.2694,0.2746,0.2794,0.2644,0.2676,0.2654,0.2725,0.2633,0.3197,0.2326,0.2242,0.2224,0.224,0.2188,0.2195,0.2199,0.2203,0.2205,0.2246,0.2246,0.2251,0.2254,0.2264,0.2267,0.2263,0.2317,0.2369,0.238,0.2519,0.2457,0.2401,0.2223,0.22,0.2163,0.2344,0.2249,0.2267,0.2294,0.2154,0.2068,0.1959,0.1963,0.1967,0.1971,0.1974,0,0.2206,0.2205,0.2206,0.2193,0.217,0.2203,0.2229,0.2194,0.221,0.2147,0.2144,0.1851,0.1716,0.1775,0.1544,0.1527,0.1469,0.1552,0.1449,0.1506,0.1559,0.1382,0.0983,0.0982,0.0981,0.098,0,0,0.218,0.2159,0.2155,0.2094,0.2084,0.204,0.2038,0.1993,0.193,0.1708,0.1556,0.151,0.1591,0.1243,0.1183,0.1078,0.1297,0.1018,0.1779,0.1706,0.1759,0.1892,0.1675,0,0,0,0,0]},{"header":{"parameterUnit":"m.s-1","parameterCategory":2,"la1":30.2991,"la2":30.254,"lo1":-89.0895,"lo2":-89.0444,"dy":0.0017,"dx":0.0017,"nx":28,"ny":28,"refTime":"2025-06-20T09:00:00:Z","depth":"2","parameterNumber":3,"parameterNumberName":"V-component_of_CURRENTS"},"data":[0,0,0,0,0,0,0,0,0,0,0,0,0,0,0,0,0,0,0,0,0,0,0,0,0,0,0,0,0,0,0,0,0,0,0,0,0,0,0,0,0,0,0,0,0,0,0,0,0,0,0,0,0,0,0,0,0,0,-0.0178,-0.0179,0,-0.0233,-0.0233,-0.0234,-0.0273,-0.0274,-0.0274,-0.0274,-0.0365,-0.0367,-0.0369,0,0,0,0,0,0,0,0,0,0,0,0,0,-0.0125,-0.0126,-0.0178,-0.0179,-0.018,-0.0233,-0.0233,-0.0234,-0.0273,-0.0274,-0.0274,-0.0275,-0.0364,-0.0367,-0.0369,0,0,0,0,0,0,0,0,0,0,0,0,0,-0.016,-0.0126,-0.0178,-0.0206,-0.0209,-0.0233,-0.0234,-0.0234,-0.0273,-0.0274,-0.0274,-0.0275,-0.0364,-0.0367,-0.037,-0.0377,0,0,-0.0379,-0.038,0,0,0,0,0,0,0,0,-0.0158,-0.0162,-0.0201,-0.0204,-0.0208,-0.0248,-0.0248,-0.0284,-0.0273,-0.0248,-0.0274,-0.0275,-0.0329,-0.0335,-0.0343,-0.0381,-0.0385,-0.0379,-0.0381,-0.0383,-0.0383,0,0,0,0,0,0,0,-0.0156,-0.016,-0.0199,-0.0202,-0.0206,-0.0222,-0.0227,-0.0255,-0.0285,-0.025,-0.0254,-0.0261,-0.0331,-0.0339,-0.0345,-0.0386,-0.0379,-0.0382,-0.0384,-0.0385,-0.0449,-0.0449,0,0,0,0,0,0,-0.0149,-0.0158,-0.0198,-0.0201,-0.0185,-0.0222,-0.0228,-0.0234,-0.0284,-0.0292,-0.026,-0.0262,-0.0334,-0.0341,-0.0349,-0.0345,-0.0383,-0.0385,-0.0387,-0.0449,-0.0449,-0.0449,0,0,0,0,0,0,-0.0147,-0.0152,-0.0195,-0.0181,-0.0188,-0.0223,-0.0228,-0.0234,-0.0245,-0.0291,-0.03,-0.0264,-0.0335,-0.0344,-0.0365,-0.035,-0.0387,-0.039,-0.045,-0.0449,-0.0449,-0.0349,0,0,0,0,0,0,-0.0146,-0.0151,-0.0151,-0.0181,-0.0189,-0.0198,-0.0228,-0.0235,-0.0248,-0.0252,-0.0297,-0.0306,-0.0336,-0.036,-0.0368,-0.0355,-0.0392,-0.045,-0.045,-0.0449,-0.0353,-0.0345,-0.0339,0,0,0,0,0,-0.0143,-0.014,-0.015,-0.0155,-0.0188,-0.0197,-0.0202,-0.0229,-0.0248,-0.0242,-0.0275,-0.0305,-0.0365,-0.0362,-0.0372,-0.0359,-0.045,-0.045,-0.0449,-0.0356,-0.0347,-0.034,0,0,0,0,0,0,-0.0122,-0.0144,-0.0157,-0.0161,-0.0173,-0.0204,-0.0206,-0.0225,-0.0246,-0.0254,-0.0299,-0.0309,-0.0322,-0.0359,-0.0355,-0.038,-0.0415,-0.0416,-0.034,-0.0333,-0.0326,-0.0307,-0.0395,0,0,0,0,0,-0.0115,-0.0116,-0.0139,-0.0143,-0.0147,-0.0176,-0.0185,-0.02,-0.0225,-0.0235,-0.0266,-0.0303,-0.0328,-0.0344,-0.0372,-0.0384,-0.0411,-0.0386,-0.0379,-0.0373,-0.0366,-0.0397,-0.0392,-0.0448,-0.0448,-0.0448,0,0,-0.0111,-0.0122,-0.0125,-0.0138,-0.0152,-0.0144,-0.0182,-0.0189,-0.0183,-0.0242,-0.0245,-0.0279,-0.0326,-0.0334,-0.0345,-0.0363,-0.0368,-0.0372,-0.0366,-0.0363,-0.0396,-0.039,-0.0385,-0.0448,-0.0448,-0.0448,0,0,-0.0092,-0.0108,-0.0097,-0.0097,-0.011,-0.0124,-0.0123,-0.0146,-0.0157,-0.0164,-0.0203,-0.0224,-0.0267,-0.0289,-0.0309,-0.0287,-0.033,-0.0304,-0.0255,-0.0284,-0.0279,-0.0275,-0.0282,-0.0279,-0.0302,-0.0302,-0.0302,0,-0.0086,-0.0072,-0.0095,-0.0077,-0.0071,-0.011,-0.0087,-0.0102,-0.0128,-0.0131,-0.0154,-0.0205,-0.0243,-0.0252,-0.0243,-0.0269,-0.029,-0.0274,-0.0273,-0.027,-0.0267,-0.0276,-0.0274,-0.0297,-0.0298,-0.0298,-0.0299,0,-0.0051,-0.0037,-0.003,-0.0018,-0.0013,-0.0002,-0.0018,-0.0019,-0.0041,-0.0059,-0.0072,-0.012,-0.015,-0.0167,-0.0197,-0.0198,-0.0217,-0.0255,-0.0285,-0.0255,-0.0266,-0.0266,-0.029,-0.0292,-0.0293,-0.0295,0,0,-0.0045,-0.0011,-0.0008,0.0017,0.0023,0.0031,0.0046,0.0049,0.006,0.0025,0.0036,-0.001,-0.0042,-0.0067,-0.011,-0.0136,-0.013,-0.0182,-0.0186,-0.0174,-0.0177,-0.0157,-0.0156,-0.0169,-0.0169,-0.0169,-0.0183,0,-0.0011,0.004,0.0048,0.0098,0.0125,0.0116,0.0138,0.0135,0.012,0.012,0.0066,0.0053,-0.0004,-0.0013,-0.0046,-0.0108,-0.013,-0.0121,-0.0221,-0.0224,-0.0198,-0.0156,-0.0187,-0.02,-0.0183,-0.0183,-0.0183,0,0.0028,0.0057,0.0114,0.0168,0.0179,0.0203,0.0234,0.025,0.0238,0.0228,0.0202,0.0154,0.0122,0.006,-0.0022,-0.0014,-0.0084,-0.0139,-0.0142,-0.016,-0.0205,-0.0234,-0.0202,-0.0185,-0.0185,-0.0184,-0.0184,0,0.0051,0.0108,0.0156,0.0174,0.0222,0.0247,0.0269,0.0278,0.03,0.0292,0.0304,0.0246,0.0227,0.013,0.0028,-0.0001,-0.0061,-0.0122,-0.0169,-0.0168,-0.0233,-0.0237,-0.0186,-0.0186,-0.0186,-0.0185,-0.0185,0,0.0092,0.0131,0.017,0.0199,0.0258,0.0283,0.0338,0.035,0.0375,0.0415,0.0358,0.038,0.0241,0.0188,0.0071,-0.0024,-0.0029,-0.0143,-0.0168,-0.0197,-0.0197,-0.0226,-0.023,-0.0186,-0.0186,-0.0186,-0.0186,0,0.0115,0.0141,0.0198,0.0252,0.0272,0.0312,0.0382,0.0424,0.0445,0.0497,0.05,0.0481,0.0434,0.0304,0.0168,0.005,-0.006,-0.0101,-0.0105,-0.013,-0.0162,-0.0161,-0.0159,-0.0159,-0.0158,-0.0158,-0.0157,0,0.0135,0.0165,0.0227,0.026,0.0286,0.0348,0.0398,0.0446,0.0497,0.0568,0.0602,0.0586,0.0603,0.0438,0.022,0.0043,0.0003,-0.0114,-0.0183,-0.0133,-0.0158,-0.0158,-0.0159,-0.0229,-0.0229,-0.0229,-0.0229,0,0.0168,0.0182,0.0225,0.0289,0.0345,0.0418,0.0494,0.0551,0.0623,0.0698,0.0793,0.082,0.0669,0.0487,0.0247,0.011,-0.0088,-0.0122,-0.0075,-0.0219,-0.0196,-0.0222,-0.022,-0.0231,-0.0231,-0.0231,-0.0231,-0.023,0.0183,0.0214,0.0264,0.0328,0.0395,0.0492,0.0563,0.0671,0.0796,0.0911,0.0928,0.0949,0.0693,0.0387,0.0191,-0.0045,-0.0056,-0.0191,-0.0192,-0.0192,-0.0186,-0.0163,-0.0189,-0.0189,-0.0188,-0.0188,-0.0188,0,0.0207,0.0243,0.0304,0.0389,0.0469,0.0496,0.0631,0.0732,0.0908,0.0974,0.1068,0.0839,0.0651,0.0397,0.0031,-0.0168,-0.0199,-0.0218,-0.0251,-0.0249,-0.0248,-0.0245,-0.0264,-0.0264,-0.0264,-0.0264,0,0,0.0223,0.0278,0.0314,0.0439,0.0499,0.0611,0.0692,0.0866,0.0951,0.1054,0.1021,0.0972,0.0649,0.0364,0.0096,-0.0084,-0.0108,-0.0107,-0.0039,-0.0047,-0.0042,-0.0239,-0.0234,0,0,0,0,0]}],[{"header":{"parameterUnit":"m.s-1","parameterCategory":2,"la1":30.2991,"la2":30.254,"lo1":-89.0895,"lo2":-89.0444,"dy":0.0017,"dx":0.0017,"nx":28,"ny":28,"refTime":"2025-06-20T09:00:00:Z","depth":"4","parameterNumber":2,"parameterNumberName":"U-component_of_CURRENTS"},"data":[0,0,0,0,0,0,0,0,0,0,0,0,0,0,0,0,0,0,0,0,0,0,0,0,0,0,0,0,0,0,0,0,0,0,0,0,0,0,0,0,0,0,0,0,0,0,0,0,0,0,0,0,0,0,0,0,0,0,0.027,0.0271,0,0.0376,0.0378,0.0379,0.0542,0.0544,0.0547,0.0549,0.0678,0.0679,0.068,0,0,0,0,0,0,0,0,0,0,0,0,0,0.0226,0.0226,0.027,0.0271,0.0272,0.0376,0.0378,0.038,0.0541,0.0544,0.0547,0.055,0.0678,0.0679,0.0681,0,0,0,0,0,0,0,0,0,0,0,0,0,0.0285,0.0226,0.027,0.0361,0.037,0.0375,0.0378,0.038,0.0541,0.0544,0.0548,0.0551,0.0677,0.0679,0.0681,0.062,0,0,0.0686,0.0687,0,0,0,0,0,0,0,0,0.0281,0.0287,0.0347,0.0355,0.0365,0.0445,0.0409,0.0459,0.054,0.0482,0.0549,0.0553,0.0596,0.0605,0.0624,0.0626,0.0631,0.0686,0.0687,0.0688,0.0689,0,0,0,0,0,0,0,0.0277,0.0283,0.0318,0.0347,0.0358,0.0402,0.0415,0.042,0.0522,0.0487,0.0498,0.05,0.0602,0.0622,0.0628,0.0633,0.0686,0.0688,0.0689,0.069,0.0798,0.0799,0,0,0,0,0,0,0.0248,0.0279,0.0314,0.032,0.0325,0.04,0.0414,0.042,0.0522,0.0539,0.0496,0.0507,0.0617,0.0626,0.0633,0.0773,0.0688,0.069,0.0691,0.0796,0.0798,0.08,0,0,0,0,0,0,0.0246,0.025,0.031,0.0298,0.0308,0.0396,0.0401,0.042,0.0519,0.0527,0.0548,0.0585,0.062,0.0631,0.0718,0.0771,0.0691,0.0692,0.0794,0.0797,0.0799,0.0919,0,0,0,0,0,0,0.0245,0.0249,0.0267,0.0295,0.0307,0.036,0.0398,0.0419,0.0507,0.0524,0.0607,0.0619,0.0624,0.0716,0.072,0.0772,0.0694,0.0792,0.0795,0.0798,0.0912,0.0925,0.0936,0,0,0,0,0,0.0243,0.025,0.0267,0.0272,0.0321,0.0361,0.0373,0.045,0.0508,0.0555,0.0628,0.0621,0.0739,0.0719,0.0723,0.0777,0.079,0.0794,0.0798,0.0907,0.0923,0.0936,0,0,0,0,0,0,0.0246,0.0267,0.0287,0.0303,0.0347,0.0388,0.0434,0.0486,0.0579,0.063,0.0648,0.0664,0.0756,0.0743,0.072,0.0815,0.076,0.0765,0.0842,0.0856,0.0868,0.0872,0.0695,0,0,0,0,0,0.0244,0.0263,0.029,0.0311,0.0336,0.0399,0.0435,0.05,0.0565,0.0617,0.0682,0.0735,0.0757,0.0796,0.082,0.0872,0.0838,0.0906,0.0918,0.0928,0.0933,0.092,0.0931,0.0813,0.0813,0.0813,0,0,0.0251,0.0264,0.0278,0.0314,0.036,0.0409,0.0436,0.0524,0.0597,0.0607,0.076,0.0786,0.078,0.0852,0.089,0.0863,0.0947,0.0933,0.0942,0.0942,0.0925,0.0936,0.0946,0.0816,0.0816,0.0815,0,0,0.0276,0.0291,0.0327,0.0358,0.0432,0.0466,0.0506,0.0604,0.0689,0.0804,0.0825,0.0888,0.0962,0.096,0.0959,0.104,0.1008,0.1061,0.1133,0.1121,0.113,0.1138,0.1124,0.1129,0.107,0.107,0.107,0,0.0296,0.0325,0.0347,0.0389,0.0422,0.0499,0.056,0.0635,0.0767,0.0834,0.0882,0.0994,0.1,0.1032,0.1074,0.1067,0.1062,0.1083,0.1136,0.1143,0.1149,0.1132,0.1137,0.1076,0.1076,0.1075,0.1074,0,0.0327,0.0378,0.0404,0.0474,0.0516,0.0583,0.0661,0.0777,0.0892,0.096,0.1088,0.111,0.1171,0.1178,0.116,0.1204,0.1188,0.1151,0.11,0.1168,0.1146,0.1149,0.1085,0.1083,0.1081,0.108,0,0,0.0319,0.0411,0.043,0.0482,0.0571,0.0614,0.074,0.0854,0.0952,0.1097,0.1198,0.1257,0.1301,0.1299,0.1286,0.1283,0.1322,0.1259,0.1255,0.1246,0.1315,0.1138,0.1123,0.1311,0.1312,0.1313,0.1287,0,0.0357,0.0443,0.0479,0.0587,0.0641,0.0728,0.0825,0.0947,0.1059,0.1182,0.1236,0.1327,0.1333,0.1379,0.1382,0.1332,0.1334,0.1333,0.1249,0.1246,0.1081,0.1121,0.1315,0.1289,0.1289,0.129,0.129,0,0.038,0.0436,0.0544,0.0659,0.0693,0.0792,0.095,0.1046,0.1197,0.1285,0.1386,0.1424,0.1472,0.1453,0.144,0.1453,0.1408,0.1361,0.1357,0.1149,0.1073,0.1203,0.1293,0.1293,0.1293,0.1293,0.1292,0,0.0355,0.0481,0.0575,0.0608,0.075,0.0868,0.0975,0.1127,0.1214,0.1368,0.1434,0.15,0.1549,0.152,0.144,0.1472,0.1371,0.1388,0.1184,0.1171,0.1286,0.1277,0.1362,0.1362,0.1362,0.1362,0.1362,0,0.0356,0.0432,0.0607,0.0652,0.0809,0.091,0.108,0.1196,0.1334,0.1373,0.1508,0.1482,0.1574,0.1518,0.1452,0.1302,0.1385,0.1196,0.1149,0.1339,0.1336,0.1288,0.128,0.1361,0.1362,0.1362,0.1362,0,0.0322,0.0422,0.0533,0.0724,0.0811,0.094,0.1154,0.1228,0.139,0.1435,0.1488,0.1528,0.1436,0.1441,0.1348,0.1297,0.1165,0.1076,0.1265,0.1229,0.0993,0.0992,0.0922,0.0916,0.091,0.0905,0.0902,0,0.0307,0.0372,0.0577,0.0667,0.079,0.0988,0.1091,0.1269,0.1279,0.1359,0.1306,0.1323,0.1301,0.1083,0.1061,0.0969,0.0929,0.0934,0.1005,0.0985,0.0947,0.0955,0.0961,0.0893,0.0891,0.089,0.0888,0,0.0276,0.0371,0.0451,0.0625,0.0779,0.0894,0.1033,0.1036,0.1135,0.1275,0.1148,0.1121,0.0995,0.0923,0.0873,0.0771,0.0988,0.0878,0.0891,0.0958,0.0949,0.0918,0.0931,0.0869,0.0872,0.0874,0.0875,0,0.0253,0.0296,0.0411,0.0564,0.0726,0.0777,0.0853,0.0854,0.0913,0.0995,0.088,0.0867,0.0909,0.0799,0.0671,0.0645,0.0666,0.0716,0.0739,0.076,0.071,0.0675,0.0467,0,0,0,0,0,0.0244,0.0265,0.0345,0.0479,0.0616,0.071,0.0782,0.081,0.0868,0.0764,0.0861,0.0716,0.0641,0.0581,0.0518,0.0541,0.0636,0.0464,0.0699,0.0763,0.0785,0.0735,0,0,0,0,0,0,0.0228,0.0288,0.0293,0.0388,0.0464,0.0568,0.0612,0.0625,0.0557,0.0637,0.0569,0.0697,0.0583,0.0684,0.0516,0.0509,0.0645,0.0475,0.0473,0.075,0.077,0.0788,0.0745,0,0,0,0,0]},{"header":{"parameterUnit":"m.s-1","parameterCategory":2,"la1":30.2991,"la2":30.254,"lo1":-89.0895,"lo2":-89.0444,"dy":0.0017,"dx":0.0017,"nx":28,"ny":28,"refTime":"2025-06-20T09:00:00:Z","depth":"4","parameterNumber":3,"parameterNumberName":"V-component_of_CURRENTS"},"data":[0,0,0,0,0,0,0,0,0,0,0,0,0,0,0,0,0,0,0,0,0,0,0,0,0,0,0,0,0,0,0,0,0,0,0,0,0,0,0,0,0,0,0,0,0,0,0,0,0,0,0,0,0,0,0,0,0,0,0.0332,0.0332,0,0.0287,0.0286,0.0285,0.0243,0.0243,0.0244,0.0244,0.0095,0.0091,0.0087,0,0,0,0,0,0,0,0,0,0,0,0,0,0.0323,0.0323,0.0332,0.0332,0.0332,0.0287,0.0286,0.0285,0.0243,0.0243,0.0244,0.0244,0.0096,0.0092,0.0087,0,0,0,0,0,0,0,0,0,0,0,0,0,0.0302,0.0323,0.0332,0.0311,0.0309,0.0287,0.0286,0.0284,0.0243,0.0243,0.0244,0.0244,0.0098,0.0092,0.0086,0.0047,0,0,0.0068,0.0065,0,0,0,0,0,0,0,0,0.0303,0.0301,0.0314,0.0312,0.031,0.0276,0.0229,0.0202,0.0243,0.0262,0.0244,0.0244,0.015,0.014,0.0124,0.0041,0.0034,0.0067,0.0064,0.0061,0.0059,0,0,0,0,0,0,0,0.0304,0.0303,0.0308,0.0314,0.0312,0.0283,0.028,0.0223,0.0199,0.026,0.0259,0.0263,0.0147,0.013,0.012,0.0032,0.0068,0.0062,0.0059,0.0056,-0.0131,-0.0133,0,0,0,0,0,0,0.0326,0.0304,0.031,0.0307,0.0314,0.0284,0.028,0.0282,0.0202,0.0193,0.0263,0.0262,0.014,0.0127,0.0114,0.0014,0.0061,0.0056,0.0052,-0.013,-0.0132,-0.0133,0,0,0,0,0,0,0.0325,0.0326,0.0311,0.031,0.0307,0.0285,0.0287,0.0281,0.0257,0.0207,0.0194,0.0246,0.014,0.0123,0.0045,0.001,0.0053,0.0047,-0.0128,-0.0131,-0.0133,-0.0155,0,0,0,0,0,0,0.0325,0.0326,0.0334,0.0311,0.0308,0.0293,0.0287,0.028,0.0264,0.026,0.0187,0.0174,0.0138,0.0054,0.0039,0.0002,0.0043,-0.0127,-0.0129,-0.0132,-0.0153,-0.0158,-0.0162,0,0,0,0,0,0.0325,0.0334,0.0335,0.0336,0.032,0.0293,0.0287,0.0268,0.0263,0.0247,0.0191,0.0176,0.0028,0.0048,0.0031,-0.0009,-0.0125,-0.0129,-0.0132,-0.0151,-0.0157,-0.0162,0,0,0,0,0,0,0.0328,0.0331,0.0331,0.0339,0.0318,0.0289,0.0285,0.0265,0.021,0.0202,0.015,0.0132,0.005,0.0027,0.0051,-0.0068,-0.0049,-0.0055,-0.0057,-0.0063,-0.0068,-0.004,0.0038,0,0,0,0,0,0.0337,0.0347,0.0333,0.0338,0.0334,0.0307,0.0296,0.0274,0.023,0.0207,0.0147,0.0087,0.0025,-0.0012,-0.0071,-0.0139,-0.0137,-0.0172,-0.0177,-0.0181,-0.017,-0.02,-0.0206,-0.0144,-0.0143,-0.0143,0,0,0.0344,0.0345,0.0352,0.034,0.0327,0.0309,0.0298,0.0275,0.0243,0.0196,0.0121,0.0062,0.0003,-0.0077,-0.0115,-0.0102,-0.0199,-0.0185,-0.0188,-0.0174,-0.0204,-0.021,-0.0215,-0.0146,-0.0145,-0.0145,0,0,0.0354,0.0359,0.0368,0.0349,0.0331,0.0309,0.0302,0.0254,0.022,0.0143,0.01,0.0028,-0.0074,-0.0121,-0.0155,-0.0218,-0.0225,-0.0245,-0.025,-0.028,-0.0285,-0.0289,-0.0292,-0.0296,-0.0245,-0.0245,-0.0245,0,0.0363,0.0367,0.0362,0.0354,0.0338,0.0309,0.0291,0.0253,0.0175,0.0141,0.0116,-0.0032,-0.0089,-0.0168,-0.0199,-0.0228,-0.0237,-0.0224,-0.0284,-0.0289,-0.0292,-0.0294,-0.0299,-0.0246,-0.0246,-0.0246,-0.0246,0,0.0362,0.0368,0.0368,0.0353,0.0328,0.0306,0.0261,0.0215,0.0165,0.012,0.002,-0.0064,-0.0141,-0.0184,-0.0219,-0.0284,-0.0279,-0.0288,-0.0265,-0.03,-0.03,-0.0304,-0.0248,-0.0248,-0.0247,-0.0247,0,0,0.0385,0.0374,0.0377,0.0368,0.0321,0.03,0.0247,0.0192,0.017,0.0066,0.0021,-0.0112,-0.015,-0.0189,-0.0245,-0.0285,-0.0335,-0.0304,-0.0305,-0.0296,-0.0388,-0.0343,-0.0343,-0.0361,-0.0362,-0.0363,-0.0375,0,0.0388,0.0384,0.0365,0.0343,0.0333,0.0284,0.0245,0.0185,0.0128,0.0075,-0.0016,-0.008,-0.0151,-0.0187,-0.0248,-0.0312,-0.0347,-0.0329,-0.0363,-0.0363,-0.0311,-0.0347,-0.0366,-0.0378,-0.0379,-0.038,-0.038,0,0.039,0.0388,0.0379,0.0347,0.0339,0.0319,0.026,0.0216,0.0144,0.0097,0.0017,-0.0038,-0.013,-0.0169,-0.0293,-0.0282,-0.0336,-0.038,-0.0382,-0.033,-0.0327,-0.0338,-0.0387,-0.0387,-0.0386,-0.0386,-0.0385,0,0.0408,0.0393,0.0391,0.0376,0.0339,0.0322,0.029,0.0226,0.021,0.0129,0.0122,-0.0005,-0.0042,-0.0151,-0.0263,-0.028,-0.0372,-0.0396,-0.0401,-0.0397,-0.0421,-0.0416,-0.0463,-0.0463,-0.0463,-0.0463,-0.0463,0,0.0407,0.0407,0.0411,0.0409,0.0404,0.0354,0.0345,0.0295,0.0264,0.0244,0.0149,0.0098,-0.0039,-0.0115,-0.0235,-0.0326,-0.0349,-0.0398,-0.0402,-0.0431,-0.0427,-0.0423,-0.0419,-0.0464,-0.0463,-0.0463,-0.0463,0,0.0415,0.0422,0.043,0.0419,0.042,0.0413,0.0407,0.0402,0.0366,0.0346,0.0332,0.0204,0.0079,-0.0028,-0.0186,-0.0254,-0.0362,-0.0383,-0.0378,-0.0383,-0.0372,-0.0369,-0.0388,-0.0386,-0.0385,-0.0384,-0.0383,0,0.0408,0.0421,0.0455,0.0475,0.0477,0.0476,0.048,0.045,0.0443,0.0376,0.0359,0.0272,0.0168,-0.0014,-0.0153,-0.0303,-0.0333,-0.0352,-0.0396,-0.0364,-0.0367,-0.0365,-0.0363,-0.0382,-0.0381,-0.0381,-0.0381,0,0.0394,0.0431,0.0442,0.0499,0.0525,0.0536,0.0533,0.0535,0.0482,0.0504,0.0373,0.0266,0.015,-0.0032,-0.01,-0.0241,-0.0327,-0.0341,-0.0345,-0.0387,-0.0357,-0.0361,-0.036,-0.0377,-0.0377,-0.0378,-0.0378,0,0.0389,0.0404,0.0451,0.049,0.055,0.0551,0.0538,0.0504,0.0494,0.0439,0.0376,0.0226,0.0153,-0.0001,-0.0117,-0.0185,-0.0224,-0.0252,-0.0262,-0.0268,-0.0234,-0.0178,-0.0144,0,0,0,0,0,0.0381,0.0395,0.043,0.0461,0.0533,0.0558,0.056,0.0537,0.0514,0.0442,0.0418,0.0286,0.0115,-0.0003,-0.0065,-0.0105,-0.0232,-0.0178,-0.0269,-0.0354,-0.0359,-0.0336,0,0,0,0,0,0,0.0366,0.0405,0.0414,0.0455,0.0481,0.052,0.0518,0.0483,0.0425,0.0402,0.029,0.0301,0.0113,0.0168,-0.0057,-0.008,-0.0142,-0.0241,-0.0242,-0.0352,-0.0356,-0.036,-0.0338,0,0,0,0,0]}]]